sat.trackr.live / text

‹ back to catalog

ONEWEB-0417

NORAD 50492 · 2021-132Z

PAYLOAD ACTIVE UNKNOWN

§ Identity

Operator
Country
UK
Launch date
2021-12-27
Launch site
TYMSC
Launch vehicle
Mass (kg)
RCS (m²)

Purposes: comms

External: N2YO · Heavens-Above · Gunter

§ Orbital elements

Epoch: 2026-05-25T02:42:07.521120Z

Period
109.20 min
Inclination
87.9160°
Eccentricity
0.0001998
Mean motion
13.18688028 rev/d
Perigee alt
1,188.2 km
Apogee alt
1,191.2 km
Semi-major
7,567.9 km
B*
6.4376e-5
RAAN
340.0506°
Arg perigee
93.6983°
Mean anomaly
266.4378°
Rev number
21,856

§ Raw data

ONEWEB-04171 50492U 21132Z   26145.11258705  .00000038  00000+0  64376-4 0  99962 50492  87.9160 340.0506 0001998  93.6983 266.4378 13.18688028218569

JSON: /api/v1/satellites/50492 · /tle

For live sub-satellite position, see the globe view (requires WebGL).

§ Visibility from observer

Set your observer location to see the next 7 days of passes ≥ 10°. The values pass through the URL so the page stays shareable.

No JS? Fill the form by hand. The geolocation button needs JavaScript.